This is the latest recevied weather packets stored in our database for station/object DB0MI. If no packets are shown the sender has not sent any weather packets the latest 1 day(s).
| Time | Temp. | Humidity | Pressure | Rain* | Wind** | Luminosity | Snow |
|---|---|---|---|---|---|---|---|
| 1778096501 | 10.56° C | 89% | 1006.7 hPa | 0 mm | - | - | - |
| 1778095901 | 11.11° C | 88% | 1006.7 hPa | 0 mm | - | - | - |
| 1778095301 | 11.11° C | 87% | 1006.6 hPa | 0 mm | - | - | - |
| 1778094701 | 11.11° C | 86% | 1006.5 hPa | 0 mm | - | - | - |
| 1778094101 | 11.67° C | 86% | 1006.6 hPa | 0 mm | - | - | - |
| 1778093501 | 11.67° C | 85% | 1006.4 hPa | 0 mm | - | - | - |
| 1778092901 | 12.22° C | 84% | 1006.4 hPa | 0 mm | - | - | - |
| 1778092301 | 12.22° C | 82% | 1006.1 hPa | 0 mm | - | - | - |
| 1778091701 | 12.78° C | 81% | 1006.2 hPa | 0 mm | - | - | - |
| 1778091101 | 12.78° C | 80% | 1006 hPa | 0 mm | - | - | - |
| 1778090501 | 13.33° C | 80% | 1006 hPa | 0 mm | - | - | - |
| 1778089901 | 13.33° C | 78% | 1006 hPa | 0 mm | - | - | - |
| 1778089301 | 13.89° C | 76% | 1005.9 hPa | 0 mm | - | - | - |
| 1778085701 | 14.44° C | 71% | 1005.8 hPa | 0 mm | - | - | - |
| 1778083301 | 15.56° C | 67% | 1006 hPa | 0 mm | - | - | - |
| 1778082101 | 16.67° C | 64% | 1006.2 hPa | 0 mm | - | - | - |
| 1778072502 | 17.78° C | 64% | 1006.2 hPa | 0 mm | - | - | - |
| 1778068902 | 17.22° C | 69% | 1006.4 hPa | 0 mm | - | - | - |
| 1778068302 | 17.22° C | 68% | 1006.4 hPa | 0 mm | - | - | - |
| 1778067702 | 17.22° C | 68% | 1006.4 hPa | 0 mm | - | - | - |
| 1778067102 | 16.67° C | 68% | 1006.5 hPa | 0 mm | - | - | - |
| 1778066502 | 17.22° C | 67% | 1006.6 hPa | 0 mm | - | - | - |
| 1778065902 | 18.33° C | 65% | 1006.5 hPa | 0 mm | - | - | - |
| 1778064102 | 20.56° C | 66% | 1006.1 hPa | 0 mm | - | - | - |
| 1778063502 | 19.44° C | 68% | 1006.2 hPa | 0 mm | - | - | - |
* Rain latest hour (hover to see other rain measurements)
** Current wind speed in m/s (hover to see current wind gust speed)